User: anonymous   Login
Location: Caltech
(34.1382°N, 118.1253°W)
Time: 13:02:57
(UTC-07:00)
Language:

Cosmos 1937 Rocket - Orbit

View from above orbital plane
View from above orbital plane
View from above satellite
View from above satellite

Ground track
Ground track

The orbit data is extracted from the following two-line orbital elements,

1 19039U 88029B   15209.88718481  .00000073  00000-0  32535-4 0  9993
2 19039 074.0488 128.6604 0022767 114.1553 308.7639 14.38236450431758
Epoch (UTC): 28 July 2015 21:17:32
Eccentricity: 0.0022767
inclination: 74.0488°
perigee height: 748 km
apogee height: 780 km
right ascension of ascending node: 128.6604°
argument of perigee: 114.1553°
revolutions per day: 14.38236450
mean anomaly at epoch: 308.7639°
orbit number at epoch: 43175

The dashed part of the orbit path shows where the satellite is in the earth's shadow,  

DLR